Location: Unspecified
(49.2170°N, 0.0000°E)
Time: 21:33:46
(UTC+00:00)

Transit 4A - Pass Details

Date: 25 June 2019
Orbit: 862 x 982 km, 66.8° (Epoch: 18 July)

Event Time Altitude Azimuth Distance (km) Brightness Sun altitude
Rises 14:54:09 0° 324° (NW) 3,697 11.2 47.7°
Reaches altitude 10° 14:56:53 10° 330° (NNW) 2,742 10.6 47.3°
Maximum altitude 15:03:03 47° 44° (NE) 1,272 8.8 46.4°
Drops below altitude 10° 15:09:05 10° 117° (ESE) 2,680 10.1 45.4°
Sets 15:11:43 0° 123° (ESE) 3,606 10.7 45.0°
